Weather History for Palm Springs, CA

Change the Weather History Date:

Saturday, August 11, 2012

  Actual Average Record
Temperature  
Mean Temperature 102 °F 92 °F  
Max Temperature 114 °F 107 °F 120 °F (1933)
Min Temperature 90 °F 78 °F 59 °F (1932)
Degree Days  
Heating Degree Days 0 0  
Month to date heating degree days 0 0  
Since 1 June heating degree days 0 0  
Since 1 July heating degree days 0 0  
Cooling Degree Days 37 27  
Month to date cooling degree days 358 302  
Year to date cooling degree days 2837 2554  
Since 1 June cooling degree days 1898 1795  
Growing Degree Days 52 (Base 50)    
Moisture  
Dew Point 58 °F    
Average Humidity 31    
Maximum Humidity 46    
Minimum Humidity 15    
Precipitation  
Precipitation 0.00 in 0.01 in 0.07 in (1983)
Month to date precipitation 0.00 0.13  
Year to date precipitation 1.11 3.32  
Since 1 July precipitation 0.32 0.38  
Snow  
Snow 0.00 in - - ()
Month to date snowfall 0.0  
Year to date snowfall 0.0  
Since 1 July snowfall 0.0  
Snow Depth 0.00 in    
Sea Level Pressure  
Sea Level Pressure 29.68 in    
Wind  
Wind Speed 6 mph (NNW)    
Max Wind Speed 15 mph    
Max Gust Speed 21 mph    
Visibility 10 miles    
Events      
T = Trace of Precipitation, MM = Missing Value Source: NWS Daily Summary

Daily Weather History Graph

Daily Weather History Graph

Search for Another Location

Airport:

Trip Planner

Search our weather history database for the weather conditions in past years. The results will help you decide how hot, cold, wet, or windy it might be!

Date:

Astronomy

Aug. 11, 2012 Rise Set
Actual Time 6:05 AM PDT 7:36 PM PDT
Civil Twilight 5:38 AM PDT 8:02 PM PDT
Nautical Twilight 5:06 AM PDT 8:34 PM PDT
Astronomical Twilight 4:33 AM PDT 9:07 PM PDT
Moon 12:41 AM PDT (8/11) 3:09 PM PDT (8/11)
Length of Visible Light 14h 24m
Length of Day
13h 30m
Waning Crescent, 31% of the Moon is Illuminated
Aug 11
Waning Crescent
Aug 17
New
Aug 24
First Quarter
Aug 31
Full
Sep 8
Last Quarter

Hourly Weather History & Observations

Time (PDT) Temp. Heat Index Dew Point Humidity Pressure Visibility Wind Dir Wind Speed Gust Speed Precip Events Conditions
12:53 AM 98.1 °F 98.6 °F 61.0 °F 29% 29.66 in 10.0 mi WNW 3.5 mph - N/A   Clear
1:53 AM 97.0 °F 96.5 °F 59.0 °F 28% 29.66 in 10.0 mi NW 8.1 mph - N/A   Clear
2:53 AM 95.0 °F 94.4 °F 59.0 °F 30% 29.65 in 10.0 mi NNW 8.1 mph - N/A   Clear
3:53 AM 95.0 °F 94.4 °F 59.0 °F 30% 29.65 in 10.0 mi NNW 8.1 mph - N/A   Clear
4:53 AM 93.9 °F 93.2 °F 59.0 °F 31% 29.65 in 10.0 mi NNW 4.6 mph - N/A   Clear
5:53 AM 93.0 °F 92.3 °F 59.0 °F 32% 29.67 in 10.0 mi NNW 4.6 mph - N/A   Scattered Clouds
6:53 AM 91.9 °F 92.5 °F 62.1 °F 37% 29.70 in 10.0 mi NNE 4.6 mph - N/A   Clear
7:53 AM 93.9 °F 96.1 °F 64.9 °F 38% 29.77 in 10.0 mi ESE 12.7 mph 19.6 mph N/A   Scattered Clouds
8:53 AM 93.9 °F 99.1 °F 69.1 °F 44% 29.78 in 10.0 mi NNE 3.5 mph - N/A   Scattered Clouds
9:53 AM 100.0 °F 103.6 °F 64.9 °F 32% 29.78 in 10.0 mi NE 6.9 mph - N/A   Scattered Clouds
10:53 AM 102.9 °F 104.2 °F 61.0 °F 25% 29.76 in 10.0 mi ENE 5.8 mph - N/A   Clear
11:53 AM 106.0 °F 107.1 °F 60.1 °F 22% 29.74 in 10.0 mi ENE 6.9 mph - N/A   Clear
12:53 PM 107.1 °F 108.1 °F 59.0 °F 21% 29.70 in 10.0 mi Calm Calm - N/A   Scattered Clouds
1:53 PM 109.9 °F 109.4 °F 55.9 °F 17% 29.68 in 10.0 mi Variable 4.6 mph - N/A   Scattered Clouds
2:53 PM 111.0 °F 111.8 °F 57.9 °F 18% 29.65 in 10.0 mi Calm Calm - N/A   Scattered Clouds
3:53 PM 113.0 °F 112.0 °F 55.0 °F 15% 29.63 in 10.0 mi East 8.1 mph - N/A   Clear
4:53 PM 111.0 °F 110.1 °F 55.9 °F 16% 29.63 in 10.0 mi WSW 5.8 mph - N/A   Mostly Cloudy
5:48 PM 109.4 °F 107.9 °F 53.6 °F 16% 29.66 in 10.0 mi NW 15.0 mph 32.2 mph N/A   Mostly Cloudy
5:53 PM 109.0 °F 108.1 °F 55.0 °F 17% 29.65 in 10.0 mi NW 26.5 mph 35.7 mph N/A   Mostly Cloudy
6:53 PM 105.1 °F 104.4 °F 55.9 °F 20% 29.64 in 10.0 mi NW 18.4 mph - N/A   Mostly Cloudy
7:53 PM 104.0 °F 102.3 °F 54.0 °F 19% 29.65 in 10.0 mi Variable 3.5 mph - N/A   Mostly Cloudy
8:53 PM 102.0 °F - 52.0 °F 19% 29.66 in 10.0 mi NW 9.2 mph - N/A   Clear
9:53 PM 100.0 °F 97.9 °F 54.0 °F 21% 29.69 in 10.0 mi WNW 6.9 mph - N/A   Clear
10:53 PM 99.0 °F 97.7 °F 55.9 °F 24% 29.70 in 10.0 mi WNW 9.2 mph - N/A   Clear
11:53 PM 97.0 °F 95.7 °F 57.0 °F 26% 29.70 in 10.0 mi NW 3.5 mph - N/A   Clear